N8PFF Weather Reports


time (UTC)temp
C
wind
direction
speed
KPH
gust
KPH
rain 1hr
cm
rain 24hr
cm
rain mn
cm
humidity
%
barometer
mb
20260507004530 12 356 4.8 11.3 0.00 1.45 1.17 61 1013.4
20260507003036 12 307 1.6 9.7 0.00 1.45 1.17 62 1013.1
20260507001550 12 326 3.2 9.7 0.00 1.45 1.17 60 1012.9
20260507000003 12 323 1.6 11.3 0.00 1.45 1.17 60 1012.9
20260506234533 13 323 4.8 12.9 0.00 1.55 1.17 57 1012.9
20260506233032 13 309 4.8 16.1 0.00 1.55 1.17 57 1012.9
20260506231556 13 281 6.4 19.3 0.00 1.55 1.17 57 1013.2
20260506230057 13 331 8.0 16.1 0.00 1.55 1.17 58 1013.4
20260506224555 13 301 6.4 14.5 0.00 1.55 1.17 57 1013.3
20260506223058 13 300 6.4 19.3 0.00 1.55 1.17 56 1012.8
20260506221513 14 330 3.2 17.7 0.00 1.55 1.17 57 1012.5
20260506220031 15 293 4.8 17.7 0.00 1.55 1.17 56 1012.4
20260506214537 15 324 8.0 14.5 0.00 1.55 1.17 53 1012.1
20260506213104 15 340 1.6 14.5 0.00 1.55 1.17 54 1011.9
20260506211632 15 298 3.2 14.5 0.00 1.55 1.17 55 1011.9
20260506210010 15 311 4.8 14.5 0.00 1.55 1.17 52 1011.7
20260506204529 15 335 6.4 16.1 0.00 1.55 1.17 51 1011.6
20260506203045 16 231 8.0 20.9 0.00 1.55 1.17 50 1011.5
20260506201609 16 263 8.0 14.5 0.00 1.55 1.17 51 1011.6
20260506200017 16 307 6.4 17.7 0.00 1.55 1.17 56 1011.5
20260506194529 15 284 3.2 14.5 0.00 1.55 1.17 54 1011.5
20260506193033 15 295 4.8 11.3 0.00 1.55 1.17 56 1011.5
20260506191528 15 274 4.8 12.9 0.00 1.55 1.17 60 1011.7
20260506190037 15 313 4.8 22.5 0.00 1.55 1.17 56 1011.9
20260506184549 15 311 4.8 17.7 0.00 1.55 1.17 57 1011.9
20260506183101 15 282 1.6 14.5 0.00 1.55 1.17 60 1011.8
20260506181509 14 275 3.2 16.1 0.00 1.55 1.17 61 1011.7
20260506180022 14 296 4.8 14.5 0.00 1.55 1.17 64 1011.9
20260506174530 14 339 4.8 11.3 0.00 1.55 1.17 66 1011.7
20260506173049 14 348 1.6 12.9 0.00 1.55 1.17 68 1011.7
20260506171553 13 271 6.4 11.3 0.00 1.55 1.17 68 1012.0
20260506170114 13 287 4.8 16.1 0.00 1.55 1.17 72 1012.0
20260506164506 12 289 8.0 12.9 0.00 1.55 1.17 76 1011.7
20260506163015 13 289 1.6 11.3 0.00 1.55 1.17 78 1011.8
20260506161534 12 299 3.2 14.5 0.00 1.55 1.17 78 1011.8
20260506160041 11 120 6.4 16.1 0.00 1.55 1.17 79 1011.8
20260506154542 11 292 3.2 16.1 0.00 1.55 1.17 84 1011.5
20260506153046 11 300 3.2 9.7 0.00 1.55 1.17 85 1011.5
20260506151501 11 285 4.8 12.9 0.00 1.55 1.17 86 1011.3
20260506150054 10 337 3.2 11.3 0.00 1.55 1.17 88 1010.9
20260506144501 10 293 6.4 16.1 0.00 1.55 1.17 90 1010.8
20260506143020 10 299 1.6 9.7 0.00 1.55 1.17 94 1010.7
20260506141525 9 301 3.2 9.7 0.00 1.55 1.17 95 1010.3
20260506140038 9 302 3.2 11.3 0.00 1.55 1.17 96 1010.0
20260506134559 8 297 4.8 12.9 0.00 1.55 1.17 96 1010.2
20260506133003 8 303 4.8 12.9 0.00 1.55 1.17 97 1009.9
20260506131522 8 324 0.0 8.0 0.03 1.55 1.17 98 1009.6
20260506130041 8 91 0.0 8.0 0.03 1.55 1.17 98 1009.7
20260506124548 7 290 1.6 9.7 0.03 1.55 1.17 98 1009.5
20260506123051 7 307 1.6 8.0 0.05 1.55 1.17 98 1009.3
20260506121510 7 302 4.8 9.7 0.03 1.52 1.14 97 1009.2
20260506120039 7 323 1.6 17.7 0.03 1.52 1.14 97 1009.2
20260506114535 7 289 6.4 11.3 0.03 1.52 1.14 97 1008.6
20260506113041 7 287 4.8 11.3 0.00 1.50 1.12 97 1008.1
20260506111548 7 313 0.0 8.0 0.00 1.50 1.12 98 1007.9
20260506110055 7 297 1.6 9.7 0.00 1.50 1.12 98 1008.1
20260506104510 7 271 4.8 11.3 0.00 1.50 1.12 98 1007.7
20260506103048 7 317 1.6 8.0 0.03 1.50 1.12 97 1006.8
20260506101551 8 300 3.2 12.9 0.10 1.50 1.12 97 1007.0
20260506100010 8 287 3.2 17.7 0.20 1.50 1.12 97 1006.8
20260506094513 8 89 6.4 16.1 0.28 1.50 1.12 97 1006.7
20260506093027 8 332 3.2 12.9 0.38 1.45 1.09 97 1006.4
20260506091535 9 48 3.2 12.9 0.36 1.40 1.02 97 1006.9
20260506090046 10 45 4.8 17.7 0.28 1.30 0.91 97 1006.7
20260506084556 10 310 8.0 16.1 0.28 1.22 0.84 97 1006.4
20260506083054 11 284 6.4 24.1 0.25 1.09 0.71 95 1006.0
20260506081505 13 146 0.0 4.8 0.28 1.04 0.66 99 1005.2
20260506073038 14 173 0.0 6.4 0.23 0.84 0.46 98 1005.4
20260506071540 14 137 1.6 3.2 0.18 0.76 0.38 98 1005.6
20260506061531 14 320 0.0 0.0 0.03 0.58 0.20 98 1006.1
20260506044545 15 87 0.0 0.0 0.20 0.53 0.15 97 1006.9
20260506043057 15 125 0.0 0.0 0.18 0.48 0.10 97 1007.2
20260506041559 15 146 0.0 3.2 0.18 0.43 0.05 97 1007.5
20260506040016 15 264 0.0 0.0 0.15 0.38 0.00 97 1007.8
20260506034526 15 198 0.0 1.6 0.18 0.33 0.33 97 1007.7
20260506033038 15 276 0.0 0.0 0.18 0.30 0.30 97 1007.7
20260506031548 15 276 0.0 0.0 0.15 0.25 0.25 97 1007.7
20260506030055 15 276 0.0 0.0 0.15 0.23 0.23 96 1007.6
20260506024519 15 276 0.0 0.0 0.08 0.15 0.15 96 1007.7
20260506023024 15 276 0.0 0.0 0.03 0.10 0.10 96 1007.7
20260506021521 15 276 0.0 1.6 0.03 0.10 0.10 95 1007.6
20260506020029 15 290 0.0 3.2 0.00 0.08 0.08 95 1007.6
20260506014539 15 43 0.0 3.2 0.00 0.08 0.08 95 1007.2
20260506013106 15 260 0.0 1.6 0.00 0.08 0.08 95 1007.7
20260506011506 15 236 0.0 3.2 0.00 0.08 0.08 94 1007.6
20260506010023 15 203 0.0 1.6 0.00 0.08 0.08 94 1007.6